Location: Newark
(52.3500°N, 175.9667°E)
Time: 16:27:13
(UTC+00:00)

S-56A Canister/Altair - Visible Passes

Search period start: 19 April 2021 00:00
Search period end: 29 April 2021 00:00
Orbit: 632 x 2500 km, 38.9° (Epoch: 18 April)

Date Brightness Start Highest point End Pass type
(mag) Time Alt. Az. Time Alt. Az. Time Alt. Az.
23 Apr 10.3 10:08:35 10° SSW 10:10:41 14° SSW 10:10:41 14° SSW visible
24 Apr 9.9 09:35:31 10° SSW 09:41:02 19° SSE 09:41:02 19° SSE visible
24 Apr 10.6 11:38:32 10° SW 11:38:33 10° SW 11:38:33 10° SW visible
25 Apr 9.8 09:02:27 10° SSW 09:08:59 19° SSE 09:11:14 17° SE visible
25 Apr 9.9 11:05:18 10° SW 11:08:45 20° SSW 11:08:45 20° SSW visible
26 Apr 10.1 08:29:25 10° SSW 08:36:12 19° SSE 08:41:14 11° ESE visible
26 Apr 9.4 10:32:00 10° SW 10:38:44 27° S 10:38:44 27° S visible
27 Apr 9.3 09:58:40 10° SW 10:06:57 29° S 10:08:31 27° SSE visible
27 Apr 10.0 12:03:27 10° WSW 12:05:58 17° SW 12:05:58 17° SW visible
28 Apr 9.6 09:25:19 10° SW 09:34:11 29° S 09:38:06 20° SE visible
28 Apr 9.5 11:30:02 10° WSW 11:35:33 26° SW 11:35:33 26° SW visible
